Year,Month,Day,Hour,Minute,Value (Times are PST for temperature in C)
2011,05,08,00,00,7.40
2011,05,08,00,01,7.40
2011,05,08,00,02,7.40
2011,05,08,00,03,7.40
2011,05,08,00,04,7.40
2011,05,08,00,05,7.40
2011,05,08,00,06,7.40
2011,05,08,00,07,7.40
2011,05,08,00,08,7.50
2011,05,08,00,09,7.50
2011,05,08,00,10,7.50
2011,05,08,00,11,7.50
2011,05,08,00,12,7.50
2011,05,08,00,13,7.60
2011,05,08,00,14,7.60
2011,05,08,00,15,7.60
2011,05,08,00,16,7.60
2011,05,08,00,17,7.60
2011,05,08,00,18,7.60
2011,05,08,00,19,7.60
2011,05,08,00,20,7.60
2011,05,08,00,21,7.60
2011,05,08,00,22,7.70
2011,05,08,00,23,7.70
2011,05,08,00,24,7.70
2011,05,08,00,25,7.70
2011,05,08,00,26,7.70
2011,05,08,00,27,7.70
2011,05,08,00,28,7.70
2011,05,08,00,29,7.70
2011,05,08,00,30,7.70
2011,05,08,00,31,7.70
2011,05,08,00,32,7.70
2011,05,08,00,33,7.70
2011,05,08,00,34,7.70
2011,05,08,00,35,7.70
2011,05,08,00,36,7.70
2011,05,08,00,37,7.70
2011,05,08,00,38,7.70
2011,05,08,00,39,7.70
2011,05,08,00,40,7.70
2011,05,08,00,41,7.70
2011,05,08,00,42,7.70
2011,05,08,00,43,7.70
2011,05,08,00,44,7.60
2011,05,08,00,45,7.60
2011,05,08,00,46,7.60
2011,05,08,00,47,7.60
2011,05,08,00,48,7.60
2011,05,08,00,49,7.60
2011,05,08,00,50,7.60
2011,05,08,00,51,7.60
2011,05,08,00,52,7.60
2011,05,08,00,53,7.50
2011,05,08,00,54,7.50
2011,05,08,00,55,7.50
2011,05,08,00,56,7.50
2011,05,08,00,57,7.40
2011,05,08,00,58,7.40
2011,05,08,00,59,7.40
2011,05,08,01,00,7.40
2011,05,08,01,01,7.30
2011,05,08,01,02,7.30
2011,05,08,01,03,7.20
2011,05,08,01,04,7.20
2011,05,08,01,05,7.10
2011,05,08,01,06,7.10
2011,05,08,01,07,7.10
2011,05,08,01,08,7.00
2011,05,08,01,09,6.90
2011,05,08,01,10,6.90
2011,05,08,01,11,6.80
2011,05,08,01,12,6.80
2011,05,08,01,13,6.80
2011,05,08,01,14,6.70
2011,05,08,01,15,6.70
2011,05,08,01,16,6.70
2011,05,08,01,17,6.60
2011,05,08,01,18,6.60
2011,05,08,01,19,6.60
2011,05,08,01,20,6.60
2011,05,08,01,21,6.50
2011,05,08,01,22,6.50
2011,05,08,01,23,6.50
2011,05,08,01,24,6.40
2011,05,08,01,25,6.40
2011,05,08,01,26,6.40
2011,05,08,01,27,6.30
2011,05,08,01,28,6.30
2011,05,08,01,29,6.30
2011,05,08,01,30,6.30
2011,05,08,01,31,6.20
2011,05,08,01,32,6.20
2011,05,08,01,33,6.20
2011,05,08,01,34,6.20
2011,05,08,01,35,6.10
2011,05,08,01,36,6.10
2011,05,08,01,37,6.10
2011,05,08,01,38,6.10
2011,05,08,01,39,6.00
2011,05,08,01,40,6.00
2011,05,08,01,41,6.00
2011,05,08,01,42,6.00
2011,05,08,01,43,5.90
2011,05,08,01,44,5.90
2011,05,08,01,45,5.90
2011,05,08,01,46,5.90
2011,05,08,01,47,5.80
2011,05,08,01,48,5.80
2011,05,08,01,49,5.80
2011,05,08,01,50,5.80
2011,05,08,01,51,5.80
2011,05,08,01,52,5.80
2011,05,08,01,53,5.70
2011,05,08,01,54,5.70
2011,05,08,01,55,5.70
2011,05,08,01,56,5.70
2011,05,08,01,57,5.70
2011,05,08,01,58,5.70
2011,05,08,01,59,5.60
2011,05,08,02,00,5.60
2011,05,08,02,01,5.60
2011,05,08,02,02,5.60
2011,05,08,02,03,5.60
2011,05,08,02,04,5.60
2011,05,08,02,05,5.60
2011,05,08,02,06,5.60
2011,05,08,02,07,5.50
2011,05,08,02,08,5.50
2011,05,08,02,09,5.50
2011,05,08,02,10,5.50
2011,05,08,02,11,5.50
2011,05,08,02,12,5.50
2011,05,08,02,13,5.50
2011,05,08,02,14,5.50
2011,05,08,02,15,5.40
2011,05,08,02,16,5.40
2011,05,08,02,17,5.40
2011,05,08,02,18,5.40
2011,05,08,02,19,5.40
2011,05,08,02,20,5.30
2011,05,08,02,21,5.30
2011,05,08,02,22,5.30
2011,05,08,02,23,5.30
2011,05,08,02,24,5.30
2011,05,08,02,25,5.30
2011,05,08,02,26,5.30
2011,05,08,02,27,5.30
2011,05,08,02,28,5.30
2011,05,08,02,29,5.20
2011,05,08,02,30,5.20
2011,05,08,02,31,5.20
2011,05,08,02,32,5.20
2011,05,08,02,33,5.20
2011,05,08,02,34,5.20
2011,05,08,02,35,5.20
2011,05,08,02,36,5.20
2011,05,08,02,37,5.20
2011,05,08,02,38,5.20
2011,05,08,02,39,5.20
2011,05,08,02,40,5.20
2011,05,08,02,41,5.20
2011,05,08,02,42,5.10
2011,05,08,02,43,5.10
2011,05,08,02,44,5.10
2011,05,08,02,45,5.10
2011,05,08,02,46,5.10
2011,05,08,02,47,5.10
2011,05,08,02,48,5.10
2011,05,08,02,49,5.10
2011,05,08,02,50,5.10
2011,05,08,02,51,5.00
2011,05,08,02,52,5.00
2011,05,08,02,53,5.00
2011,05,08,02,54,5.00
2011,05,08,02,55,5.00
2011,05,08,02,56,5.00
2011,05,08,02,57,5.00
2011,05,08,02,58,5.00
2011,05,08,02,59,4.90
2011,05,08,03,00,4.90
2011,05,08,03,01,4.90
2011,05,08,03,02,4.90
2011,05,08,03,03,4.90
2011,05,08,03,04,4.90
2011,05,08,03,05,4.90
2011,05,08,03,06,4.90
2011,05,08,03,07,4.90
2011,05,08,03,08,4.90
2011,05,08,03,09,4.90
2011,05,08,03,10,4.80
2011,05,08,03,11,4.80
2011,05,08,03,12,4.80
2011,05,08,03,13,4.80
2011,05,08,03,14,4.80
2011,05,08,03,15,4.80
2011,05,08,03,16,4.80
2011,05,08,03,17,4.80
2011,05,08,03,18,4.80
2011,05,08,03,19,4.80
2011,05,08,03,20,4.70
2011,05,08,03,21,4.70
2011,05,08,03,22,4.70
2011,05,08,03,23,4.70
2011,05,08,03,24,4.70
2011,05,08,03,25,4.70
2011,05,08,03,26,4.70
2011,05,08,03,27,4.70
2011,05,08,03,28,4.70
2011,05,08,03,29,4.70
2011,05,08,03,30,4.60
2011,05,08,03,31,4.60
2011,05,08,03,32,4.60
2011,05,08,03,33,4.60
2011,05,08,03,34,4.60
2011,05,08,03,35,4.60
2011,05,08,03,36,4.50
2011,05,08,03,37,4.50
2011,05,08,03,38,4.50
2011,05,08,03,39,4.50
2011,05,08,03,40,4.50
2011,05,08,03,41,4.50
2011,05,08,03,42,4.50
2011,05,08,03,43,4.50
2011,05,08,03,44,4.50
2011,05,08,03,45,4.40
2011,05,08,03,46,4.40
2011,05,08,03,47,4.40
2011,05,08,03,48,4.40
2011,05,08,03,49,4.40
2011,05,08,03,50,4.40
2011,05,08,03,51,4.40
2011,05,08,03,52,4.40
2011,05,08,03,53,4.40
2011,05,08,03,54,4.40
2011,05,08,03,55,4.30
2011,05,08,03,56,4.30
2011,05,08,03,57,4.30
2011,05,08,03,58,4.30
2011,05,08,03,59,4.30
2011,05,08,04,00,4.30
2011,05,08,04,01,4.30
2011,05,08,04,02,4.30
2011,05,08,04,03,4.30
2011,05,08,04,04,4.20
2011,05,08,04,05,4.20
2011,05,08,04,06,4.20
2011,05,08,04,07,4.20
2011,05,08,04,08,4.20
2011,05,08,04,09,4.20
2011,05,08,04,10,4.20
2011,05,08,04,11,4.20
2011,05,08,04,12,4.20
2011,05,08,04,13,4.20
2011,05,08,04,14,4.10
2011,05,08,04,15,4.10
2011,05,08,04,16,4.10
2011,05,08,04,17,4.10
2011,05,08,04,18,4.10
2011,05,08,04,19,4.10
2011,05,08,04,20,4.00
2011,05,08,04,21,4.00
2011,05,08,04,22,4.00
2011,05,08,04,23,4.00
2011,05,08,04,24,4.00
2011,05,08,04,25,4.00
2011,05,08,04,26,4.00
2011,05,08,04,27,4.00
2011,05,08,04,28,4.00
2011,05,08,04,29,3.90
2011,05,08,04,30,3.90
2011,05,08,04,31,3.90
2011,05,08,04,32,3.90
2011,05,08,04,33,3.90
2011,05,08,04,34,3.90
2011,05,08,04,35,3.90
2011,05,08,04,36,3.90
2011,05,08,04,37,3.80
2011,05,08,04,38,3.80
2011,05,08,04,39,3.80
2011,05,08,04,40,3.80
2011,05,08,04,41,3.80
2011,05,08,04,42,3.80
2011,05,08,04,43,3.80
2011,05,08,04,44,3.80
2011,05,08,04,45,3.80
2011,05,08,04,46,3.80
2011,05,08,04,47,3.70
2011,05,08,04,48,3.70
2011,05,08,04,49,3.70
2011,05,08,04,50,3.70
2011,05,08,04,51,3.70
2011,05,08,04,52,3.70
2011,05,08,04,53,3.70
2011,05,08,04,54,3.60
2011,05,08,04,55,3.60
2011,05,08,04,56,3.60
2011,05,08,04,57,3.60
2011,05,08,04,58,3.60
2011,05,08,04,59,3.60
2011,05,08,05,00,3.60
2011,05,08,05,01,3.60
2011,05,08,05,02,3.60
2011,05,08,05,03,3.60
2011,05,08,05,04,3.50
2011,05,08,05,05,3.50
2011,05,08,05,06,3.50
2011,05,08,05,07,3.50
2011,05,08,05,08,3.40
2011,05,08,05,09,3.40
2011,05,08,05,10,3.40
2011,05,08,05,11,3.40
2011,05,08,05,12,3.40
2011,05,08,05,13,3.40
2011,05,08,05,14,3.40
2011,05,08,05,15,3.40
2011,05,08,05,16,3.40
2011,05,08,05,17,3.30
2011,05,08,05,18,3.30
2011,05,08,05,19,3.30
2011,05,08,05,20,3.30
2011,05,08,05,21,3.30
2011,05,08,05,22,3.30
2011,05,08,05,23,3.30
2011,05,08,05,24,3.30
2011,05,08,05,25,3.30
2011,05,08,05,26,3.30
2011,05,08,05,27,3.30
2011,05,08,05,28,3.30
2011,05,08,05,29,3.30
2011,05,08,05,30,3.20
2011,05,08,05,31,3.20
2011,05,08,05,32,3.20
2011,05,08,05,33,3.20
2011,05,08,05,34,3.20
2011,05,08,05,35,3.20
2011,05,08,05,36,3.20
2011,05,08,05,37,3.10
2011,05,08,05,38,3.10
2011,05,08,05,39,3.10
2011,05,08,05,40,3.10
2011,05,08,05,41,3.10
2011,05,08,05,42,3.10
2011,05,08,05,43,3.10
2011,05,08,05,44,3.10
2011,05,08,05,45,3.10
2011,05,08,05,46,3.10
2011,05,08,05,47,3.10
2011,05,08,05,48,3.10
2011,05,08,05,49,3.10
2011,05,08,05,50,3.00
2011,05,08,05,51,3.00
2011,05,08,05,52,3.00
2011,05,08,05,53,3.00
2011,05,08,05,54,3.00
2011,05,08,05,55,2.90
2011,05,08,05,56,2.90
2011,05,08,05,57,2.90
2011,05,08,05,58,2.90
2011,05,08,05,59,2.90
2011,05,08,06,00,2.90
2011,05,08,06,01,2.80
2011,05,08,06,02,2.80
2011,05,08,06,03,2.80
2011,05,08,06,04,2.80
2011,05,08,06,05,2.80
2011,05,08,06,06,2.70
2011,05,08,06,07,2.80
2011,05,08,06,08,2.80
2011,05,08,06,09,2.80
2011,05,08,06,10,2.80
2011,05,08,06,11,2.80
2011,05,08,06,12,2.80
2011,05,08,06,13,2.80
2011,05,08,06,14,2.80
2011,05,08,06,15,2.80
2011,05,08,06,16,2.80
2011,05,08,06,17,2.80
2011,05,08,06,18,2.90
2011,05,08,06,19,2.90
2011,05,08,06,20,2.90
2011,05,08,06,21,2.90
2011,05,08,06,22,3.00
2011,05,08,06,23,3.00
2011,05,08,06,24,3.00
2011,05,08,06,25,3.00
2011,05,08,06,26,3.10
2011,05,08,06,27,3.10
2011,05,08,06,28,3.10
2011,05,08,06,29,3.10
2011,05,08,06,30,3.10
2011,05,08,06,31,3.20
2011,05,08,06,32,3.20
2011,05,08,06,33,3.20
2011,05,08,06,34,3.20
2011,05,08,06,35,3.20
2011,05,08,06,36,3.20
2011,05,08,06,37,3.20
2011,05,08,06,38,3.20
2011,05,08,06,39,3.20
2011,05,08,06,40,3.20
2011,05,08,06,41,3.30
2011,05,08,06,42,3.30
2011,05,08,06,43,3.30
2011,05,08,06,44,3.30
2011,05,08,06,45,3.30
2011,05,08,06,46,3.30
2011,05,08,06,47,3.30
2011,05,08,06,48,3.40
2011,05,08,06,49,3.40
2011,05,08,06,50,3.40
2011,05,08,06,51,3.50
2011,05,08,06,52,3.60
2011,05,08,06,53,3.60
2011,05,08,06,54,3.70
2011,05,08,06,55,3.70
2011,05,08,06,56,3.80
2011,05,08,06,57,3.80
2011,05,08,06,58,3.80
2011,05,08,06,59,3.90
2011,05,08,07,00,3.90
2011,05,08,07,01,4.00
2011,05,08,07,02,4.00
2011,05,08,07,03,4.10
2011,05,08,07,04,4.10
2011,05,08,07,05,4.20
2011,05,08,07,06,4.20
2011,05,08,07,07,4.30
2011,05,08,07,08,4.30
2011,05,08,07,09,4.30
2011,05,08,07,10,4.30
2011,05,08,07,11,4.40
2011,05,08,07,12,4.40
2011,05,08,07,13,4.50
2011,05,08,07,14,4.50
2011,05,08,07,15,4.60
2011,05,08,07,16,4.60
2011,05,08,07,17,4.70
2011,05,08,07,18,4.70
2011,05,08,07,19,4.80
2011,05,08,07,20,4.80
2011,05,08,07,21,4.80
2011,05,08,07,22,4.90
2011,05,08,07,23,4.90
2011,05,08,07,24,4.90
2011,05,08,07,25,5.00
2011,05,08,07,26,5.00
2011,05,08,07,27,5.00
2011,05,08,07,28,5.10
2011,05,08,07,29,5.10
2011,05,08,07,30,5.20
2011,05,08,07,31,5.20
2011,05,08,07,32,5.20
2011,05,08,07,33,5.30
2011,05,08,07,34,5.30
2011,05,08,07,35,5.30
2011,05,08,07,36,5.40
2011,05,08,07,37,5.40
2011,05,08,07,38,5.40
2011,05,08,07,39,5.50
2011,05,08,07,40,5.50
2011,05,08,07,41,5.60
2011,05,08,07,42,5.60
2011,05,08,07,43,5.70
2011,05,08,07,44,5.70
2011,05,08,07,45,5.70
2011,05,08,07,46,5.70
2011,05,08,07,47,5.80
2011,05,08,07,48,5.80
2011,05,08,07,49,5.80
2011,05,08,07,50,5.90
2011,05,08,07,51,5.90
2011,05,08,07,52,5.90
2011,05,08,07,53,6.00
2011,05,08,07,54,6.10
2011,05,08,07,55,6.10
2011,05,08,07,56,6.10
2011,05,08,07,57,6.20
2011,05,08,07,58,6.20
2011,05,08,07,59,6.20
2011,05,08,08,00,6.30
2011,05,08,08,01,6.30
2011,05,08,08,02,6.30
2011,05,08,08,03,6.30
2011,05,08,08,04,6.40
2011,05,08,08,05,6.40
2011,05,08,08,06,6.40
2011,05,08,08,07,6.50
2011,05,08,08,08,6.50
2011,05,08,08,09,6.60
2011,05,08,08,10,6.60
2011,05,08,08,11,6.70
2011,05,08,08,12,6.70
2011,05,08,08,13,6.70
2011,05,08,08,14,6.80
2011,05,08,08,15,6.80
2011,05,08,08,16,6.90
2011,05,08,08,17,6.90
2011,05,08,08,18,7.00
2011,05,08,08,19,7.10
2011,05,08,08,20,7.10
2011,05,08,08,21,7.20
2011,05,08,08,22,7.30
2011,05,08,08,23,7.30
2011,05,08,08,24,7.40
2011,05,08,08,25,7.50
2011,05,08,08,26,7.60
2011,05,08,08,27,7.70
2011,05,08,08,28,7.80
2011,05,08,08,29,7.90
2011,05,08,08,30,8.00
2011,05,08,08,31,8.10
2011,05,08,08,32,8.20
2011,05,08,08,33,8.30
2011,05,08,08,34,8.40
2011,05,08,08,35,8.50
2011,05,08,08,36,8.60
2011,05,08,08,37,8.70
2011,05,08,08,38,8.80
2011,05,08,08,39,9.00
2011,05,08,08,40,9.10
2011,05,08,08,41,9.20
2011,05,08,08,42,9.30
2011,05,08,08,43,9.40
2011,05,08,08,44,9.50
2011,05,08,08,45,9.70
2011,05,08,08,46,9.80
2011,05,08,08,47,9.80
2011,05,08,08,48,9.90
2011,05,08,08,49,10.00
2011,05,08,08,50,10.10
2011,05,08,08,51,10.20
2011,05,08,08,52,10.30
2011,05,08,08,53,10.40
2011,05,08,08,54,10.50
2011,05,08,08,55,10.50
2011,05,08,08,56,10.50
2011,05,08,08,57,10.50
2011,05,08,08,58,10.40
2011,05,08,08,59,10.40
2011,05,08,09,00,10.40
2011,05,08,09,01,10.30
2011,05,08,09,02,10.30
2011,05,08,09,03,10.20
2011,05,08,09,04,10.20
2011,05,08,09,05,10.10
2011,05,08,09,06,10.10
2011,05,08,09,07,10.00
2011,05,08,09,08,10.00
2011,05,08,09,09,10.10
2011,05,08,09,10,10.10
2011,05,08,09,11,10.10
2011,05,08,09,12,10.10
2011,05,08,09,13,10.10
2011,05,08,09,14,10.10
2011,05,08,09,15,10.10
2011,05,08,09,16,10.10
2011,05,08,09,17,10.20
2011,05,08,09,18,10.30
2011,05,08,09,19,10.30
2011,05,08,09,20,10.40
2011,05,08,09,21,10.50
2011,05,08,09,22,10.70
2011,05,08,09,23,10.70
2011,05,08,09,24,10.70
2011,05,08,09,25,10.80
2011,05,08,09,26,10.80
2011,05,08,09,27,10.80
2011,05,08,09,28,10.90
2011,05,08,09,29,10.90
2011,05,08,09,30,11.00
2011,05,08,09,31,11.00
2011,05,08,09,32,11.00
2011,05,08,09,33,11.00
2011,05,08,09,34,11.10
2011,05,08,09,35,11.10
2011,05,08,09,36,11.20
2011,05,08,09,37,11.30
2011,05,08,09,38,11.30
2011,05,08,09,39,11.40
2011,05,08,09,40,11.60
2011,05,08,09,41,11.70
2011,05,08,09,42,11.70
2011,05,08,09,43,11.70
2011,05,08,09,44,11.60
2011,05,08,09,45,11.60
2011,05,08,09,46,11.50
2011,05,08,09,47,11.50
2011,05,08,09,48,11.50
2011,05,08,09,49,11.60
2011,05,08,09,50,11.60
2011,05,08,09,51,11.70
2011,05,08,09,52,11.70
2011,05,08,09,53,11.70
2011,05,08,09,54,11.70
2011,05,08,09,55,11.70
2011,05,08,09,56,11.70
2011,05,08,09,57,11.60
2011,05,08,09,58,11.60
2011,05,08,09,59,11.50
2011,05,08,10,00,11.40
2011,05,08,10,01,11.40
2011,05,08,10,02,11.40
2011,05,08,10,03,11.40
2011,05,08,10,04,11.50
2011,05,08,10,05,11.60
2011,05,08,10,06,11.60
2011,05,08,10,07,11.50
2011,05,08,10,08,11.50
2011,05,08,10,09,11.40
2011,05,08,10,10,11.30
2011,05,08,10,11,11.30
2011,05,08,10,12,11.20
2011,05,08,10,13,11.20
2011,05,08,10,14,11.10
2011,05,08,10,15,11.10
2011,05,08,10,16,11.10
2011,05,08,10,17,11.00
2011,05,08,10,18,11.00
2011,05,08,10,19,11.00
2011,05,08,10,20,11.00
2011,05,08,10,21,11.00
2011,05,08,10,22,11.10
2011,05,08,10,23,11.10
2011,05,08,10,24,11.10
2011,05,08,10,25,11.10
2011,05,08,10,26,11.10
2011,05,08,10,27,11.10
2011,05,08,10,28,11.10
2011,05,08,10,29,11.00
2011,05,08,10,30,11.00
2011,05,08,10,31,11.00
2011,05,08,10,32,10.90
2011,05,08,10,33,10.90
2011,05,08,10,34,10.90
2011,05,08,10,35,10.90
2011,05,08,10,36,10.90
2011,05,08,10,37,10.90
2011,05,08,10,38,11.00
2011,05,08,10,39,11.00
2011,05,08,10,40,11.00
2011,05,08,10,41,11.00
2011,05,08,10,42,11.10
2011,05,08,10,43,11.10
2011,05,08,10,44,11.10
2011,05,08,10,45,11.20
2011,05,08,10,46,11.20
2011,05,08,10,47,11.20
2011,05,08,10,48,11.20
2011,05,08,10,49,11.20
2011,05,08,10,50,11.30
2011,05,08,10,51,11.40
2011,05,08,10,52,11.40
2011,05,08,10,53,11.40
2011,05,08,10,54,11.40
2011,05,08,10,55,11.50
2011,05,08,10,56,11.50
2011,05,08,10,57,11.60
2011,05,08,10,58,11.70
2011,05,08,10,59,11.80
2011,05,08,11,00,11.80
2011,05,08,11,01,11.70
2011,05,08,11,02,11.70
2011,05,08,11,03,11.70
2011,05,08,11,04,11.60
2011,05,08,11,05,11.60
2011,05,08,11,06,11.60
2011,05,08,11,07,11.60
2011,05,08,11,08,11.70
2011,05,08,11,09,11.70
2011,05,08,11,10,11.80
2011,05,08,11,11,11.80
2011,05,08,11,12,11.80
2011,05,08,11,13,11.80
2011,05,08,11,14,11.80
2011,05,08,11,15,11.80
2011,05,08,11,16,11.80
2011,05,08,11,17,11.80
2011,05,08,11,18,11.80
2011,05,08,11,19,11.80
2011,05,08,11,20,11.80
2011,05,08,11,21,11.80
2011,05,08,11,22,11.80
2011,05,08,11,23,11.80
2011,05,08,11,24,11.70
2011,05,08,11,25,11.70
2011,05,08,11,26,11.70
2011,05,08,11,27,11.70
2011,05,08,11,28,11.70
2011,05,08,11,29,11.80
2011,05,08,11,30,11.90
2011,05,08,11,31,11.90
2011,05,08,11,32,11.90
2011,05,08,11,33,11.90
2011,05,08,11,34,11.80
2011,05,08,11,35,11.80
2011,05,08,11,36,11.80
2011,05,08,11,37,11.70
2011,05,08,11,38,11.70
2011,05,08,11,39,11.70
2011,05,08,11,40,11.80
2011,05,08,11,41,11.80
2011,05,08,11,42,11.80
2011,05,08,11,43,11.80
2011,05,08,11,44,11.80
2011,05,08,11,45,11.90
2011,05,08,11,46,11.90
2011,05,08,11,47,11.90
2011,05,08,11,48,11.80
2011,05,08,11,49,11.70
2011,05,08,11,50,11.70
2011,05,08,11,51,11.60
2011,05,08,11,52,11.50
2011,05,08,11,53,11.40
2011,05,08,11,54,11.30
2011,05,08,11,55,11.30
2011,05,08,11,56,11.30
2011,05,08,11,57,11.30
2011,05,08,11,58,11.20
2011,05,08,11,59,11.20
2011,05,08,12,00,11.20
2011,05,08,12,01,11.30
2011,05,08,12,02,11.30
2011,05,08,12,03,11.30
2011,05,08,12,04,11.30
2011,05,08,12,05,11.40
2011,05,08,12,06,11.40
2011,05,08,12,07,11.40
2011,05,08,12,08,11.50
2011,05,08,12,09,11.60
2011,05,08,12,10,11.60
2011,05,08,12,11,11.70
2011,05,08,12,12,11.70
2011,05,08,12,13,11.80
2011,05,08,12,14,11.80
2011,05,08,12,15,11.90
2011,05,08,12,16,12.00
2011,05,08,12,17,12.00
2011,05,08,12,18,12.10
2011,05,08,12,19,12.10
2011,05,08,12,20,12.00
2011,05,08,12,21,11.90
2011,05,08,12,22,11.90
2011,05,08,12,23,11.80
2011,05,08,12,24,11.80
2011,05,08,12,25,11.80
2011,05,08,12,26,11.70
2011,05,08,12,27,11.70
2011,05,08,12,28,11.80
2011,05,08,12,29,11.80
2011,05,08,12,30,11.80
2011,05,08,12,31,11.80
2011,05,08,12,32,11.80
2011,05,08,12,33,11.80
2011,05,08,12,34,11.80
2011,05,08,12,35,11.70
2011,05,08,12,36,11.70
2011,05,08,12,37,11.70
2011,05,08,12,38,11.70
2011,05,08,12,39,11.70
2011,05,08,12,40,11.70
2011,05,08,12,41,11.60
2011,05,08,12,42,11.60
2011,05,08,12,43,11.60
2011,05,08,12,44,11.60
2011,05,08,12,45,11.50
2011,05,08,12,46,11.50
2011,05,08,12,47,11.50
2011,05,08,12,48,11.50
2011,05,08,12,49,11.50
2011,05,08,12,50,11.60
2011,05,08,12,51,11.60
2011,05,08,12,52,11.60
2011,05,08,12,53,11.60
2011,05,08,12,54,11.60
2011,05,08,12,55,11.60
2011,05,08,12,56,11.60
2011,05,08,12,57,11.50
2011,05,08,12,58,11.50
2011,05,08,12,59,11.50
2011,05,08,13,00,11.40
2011,05,08,13,01,11.40
2011,05,08,13,02,11.40
2011,05,08,13,03,11.30
2011,05,08,13,04,11.30
2011,05,08,13,05,11.30
2011,05,08,13,06,11.30
2011,05,08,13,07,11.30
2011,05,08,13,08,11.30
2011,05,08,13,09,11.20
2011,05,08,13,10,11.10
2011,05,08,13,11,11.00
2011,05,08,13,12,10.90
2011,05,08,13,13,10.80
2011,05,08,13,14,10.70
2011,05,08,13,15,10.70
2011,05,08,13,16,10.60
2011,05,08,13,17,10.60
2011,05,08,13,18,10.60
2011,05,08,13,19,10.60
2011,05,08,13,20,10.70
2011,05,08,13,21,10.70
2011,05,08,13,22,10.80
2011,05,08,13,23,10.90
2011,05,08,13,24,11.00
2011,05,08,13,25,11.10
2011,05,08,13,26,11.20
2011,05,08,13,27,11.30
2011,05,08,13,28,11.40
2011,05,08,13,29,11.40
2011,05,08,13,30,11.40
2011,05,08,13,31,11.50
2011,05,08,13,32,11.50
2011,05,08,13,33,11.60
2011,05,08,13,34,11.70
2011,05,08,13,35,11.70
2011,05,08,13,36,11.70
2011,05,08,13,37,11.80
2011,05,08,13,38,11.80
2011,05,08,13,39,11.80
2011,05,08,13,40,11.80
2011,05,08,13,41,11.80
2011,05,08,13,42,11.70
2011,05,08,13,43,11.70
2011,05,08,13,44,11.70
2011,05,08,13,45,11.70
2011,05,08,13,46,11.70
2011,05,08,13,47,11.70
2011,05,08,13,48,11.70
2011,05,08,13,49,11.70
2011,05,08,13,50,11.70
2011,05,08,13,51,11.70
2011,05,08,13,52,11.70
2011,05,08,13,53,11.80
2011,05,08,13,54,11.80
2011,05,08,13,55,11.80
2011,05,08,13,56,11.80
2011,05,08,13,57,11.80
2011,05,08,13,58,11.80
2011,05,08,13,59,11.80
2011,05,08,14,00,11.80
2011,05,08,14,01,11.80
2011,05,08,14,02,11.70
2011,05,08,14,03,11.70
2011,05,08,14,04,11.70
2011,05,08,14,05,11.70
2011,05,08,14,06,11.70
2011,05,08,14,07,11.70
2011,05,08,14,08,11.70
2011,05,08,14,09,11.70
2011,05,08,14,10,11.70
2011,05,08,14,11,11.70
2011,05,08,14,12,11.70
2011,05,08,14,13,11.70
2011,05,08,14,14,11.70
2011,05,08,14,15,11.60
2011,05,08,14,16,11.60
2011,05,08,14,17,11.50
2011,05,08,14,18,11.50
2011,05,08,14,19,11.40
2011,05,08,14,20,11.40
2011,05,08,14,21,11.30
2011,05,08,14,22,11.30
2011,05,08,14,23,11.20
2011,05,08,14,24,11.20
2011,05,08,14,25,11.10
2011,05,08,14,26,11.10
2011,05,08,14,27,11.10
2011,05,08,14,28,11.10
2011,05,08,14,29,11.20
2011,05,08,14,30,11.20
2011,05,08,14,31,11.30
2011,05,08,14,32,11.40
2011,05,08,14,33,11.50
2011,05,08,14,34,11.60
2011,05,08,14,35,11.70
2011,05,08,14,36,11.70
2011,05,08,14,37,11.80
2011,05,08,14,38,11.90
2011,05,08,14,39,11.90
2011,05,08,14,40,11.90
2011,05,08,14,41,11.90
2011,05,08,14,42,11.90
2011,05,08,14,43,12.00
2011,05,08,14,44,12.00
2011,05,08,14,45,12.00
2011,05,08,14,46,12.10
2011,05,08,14,47,12.10
2011,05,08,14,48,12.20
2011,05,08,14,49,12.20
2011,05,08,14,50,12.20
2011,05,08,14,51,12.20
2011,05,08,14,52,12.30
2011,05,08,14,53,12.30
2011,05,08,14,54,12.30
2011,05,08,14,55,12.30
2011,05,08,14,56,12.20
2011,05,08,14,57,12.20
2011,05,08,14,58,12.20
2011,05,08,14,59,12.20
2011,05,08,15,00,12.20
2011,05,08,15,01,12.20
2011,05,08,15,02,12.20
2011,05,08,15,03,12.20
2011,05,08,15,04,12.20
2011,05,08,15,05,12.30
2011,05,08,15,06,12.30
2011,05,08,15,07,12.30
2011,05,08,15,08,12.30
2011,05,08,15,09,12.30
2011,05,08,15,10,12.30
2011,05,08,15,11,12.30
2011,05,08,15,12,12.20
2011,05,08,15,13,12.20
2011,05,08,15,14,12.20
2011,05,08,15,15,12.20
2011,05,08,15,16,12.20
2011,05,08,15,17,12.20
2011,05,08,15,18,12.20
2011,05,08,15,19,12.10
2011,05,08,15,20,12.10
2011,05,08,15,21,12.00
2011,05,08,15,22,11.90
2011,05,08,15,23,11.90
2011,05,08,15,24,11.80
2011,05,08,15,25,11.80
2011,05,08,15,26,11.70
2011,05,08,15,27,11.70
2011,05,08,15,28,11.70
2011,05,08,15,29,11.60
2011,05,08,15,30,11.60
2011,05,08,15,31,11.60
2011,05,08,15,32,11.60
2011,05,08,15,33,11.60
2011,05,08,15,34,11.50
2011,05,08,15,35,11.50
2011,05,08,15,36,11.50
2011,05,08,15,37,11.50
2011,05,08,15,38,11.50
2011,05,08,15,39,11.40
2011,05,08,15,40,11.40
2011,05,08,15,41,11.30
2011,05,08,15,42,11.30
2011,05,08,15,43,11.30
2011,05,08,15,44,11.30
2011,05,08,15,45,11.40
2011,05,08,15,46,11.50
2011,05,08,15,47,11.50
2011,05,08,15,48,11.60
2011,05,08,15,49,11.70
2011,05,08,15,50,11.70
2011,05,08,15,51,11.80
2011,05,08,15,52,11.80
2011,05,08,15,53,11.90
2011,05,08,15,54,12.00
2011,05,08,15,55,12.10
2011,05,08,15,56,12.10
2011,05,08,15,57,12.00
2011,05,08,15,58,12.00
2011,05,08,15,59,12.00
2011,05,08,16,00,12.00
2011,05,08,16,01,11.90
2011,05,08,16,02,11.90
2011,05,08,16,03,11.90
2011,05,08,16,04,11.90
2011,05,08,16,05,11.90
2011,05,08,16,06,11.90
2011,05,08,16,07,12.00
2011,05,08,16,08,12.00
2011,05,08,16,09,12.00
2011,05,08,16,10,12.00
2011,05,08,16,11,12.10
2011,05,08,16,12,12.10
2011,05,08,16,13,12.10
2011,05,08,16,14,12.10
2011,05,08,16,15,12.10
2011,05,08,16,16,12.20
2011,05,08,16,17,12.20
2011,05,08,16,18,12.20
2011,05,08,16,19,12.20
2011,05,08,16,20,12.20
2011,05,08,16,21,12.20
2011,05,08,16,22,12.30
2011,05,08,16,23,12.30
2011,05,08,16,24,12.40
2011,05,08,16,25,12.40
2011,05,08,16,26,12.40
2011,05,08,16,27,12.40
2011,05,08,16,28,12.30
2011,05,08,16,29,12.30
2011,05,08,16,30,12.30
2011,05,08,16,31,12.30
2011,05,08,16,32,12.30
2011,05,08,16,33,12.30
2011,05,08,16,34,12.30
2011,05,08,16,35,12.40
2011,05,08,16,36,12.40
2011,05,08,16,37,12.50
2011,05,08,16,38,12.50
2011,05,08,16,39,12.50
2011,05,08,16,40,12.60
2011,05,08,16,41,12.60
2011,05,08,16,42,12.60
2011,05,08,16,43,12.60
2011,05,08,16,44,12.60
2011,05,08,16,45,12.60
2011,05,08,16,46,12.60
2011,05,08,16,47,12.60
2011,05,08,16,48,12.70
2011,05,08,16,49,12.70
2011,05,08,16,50,12.70
2011,05,08,16,51,12.70
2011,05,08,16,52,12.80
2011,05,08,16,53,12.80
2011,05,08,16,54,12.80
2011,05,08,16,55,12.80
2011,05,08,16,56,12.80
2011,05,08,16,57,12.80
2011,05,08,16,58,12.80
2011,05,08,16,59,12.80
2011,05,08,17,00,12.80
2011,05,08,17,01,12.80
2011,05,08,17,02,12.80
2011,05,08,17,03,12.80
2011,05,08,17,04,12.80
2011,05,08,17,05,12.80
2011,05,08,17,06,12.80
2011,05,08,17,07,12.80
2011,05,08,17,08,12.80
2011,05,08,17,09,12.80
2011,05,08,17,10,12.80
2011,05,08,17,11,12.80
2011,05,08,17,12,12.80
2011,05,08,17,13,12.80
2011,05,08,17,14,12.90
2011,05,08,17,15,12.90
2011,05,08,17,16,12.90
2011,05,08,17,17,13.00
2011,05,08,17,18,13.00
2011,05,08,17,19,13.10
2011,05,08,17,20,13.10
2011,05,08,17,21,13.10
2011,05,08,17,22,13.10
2011,05,08,17,23,13.10
2011,05,08,17,24,13.20
2011,05,08,17,25,13.20
2011,05,08,17,26,13.20
2011,05,08,17,27,13.20
2011,05,08,17,28,13.20
2011,05,08,17,29,13.20
2011,05,08,17,30,13.20
2011,05,08,17,31,13.20
2011,05,08,17,32,13.30
2011,05,08,17,33,13.30
2011,05,08,17,34,13.30
2011,05,08,17,35,13.30
2011,05,08,17,36,13.40
2011,05,08,17,37,13.40
2011,05,08,17,38,13.40
2011,05,08,17,39,13.50
2011,05,08,17,40,13.60
2011,05,08,17,41,13.60
2011,05,08,17,42,13.60